Regional Weather Roundup
Issued by NWS

Home | Current Version | Previous Version | Text Only | Print | Product List | Glossary Off
Versions: 1 2 3 4 5 6 7 8 9 10 11 12 13 14 15 16 17 18 19 20 21 22 23 24 25 26 27 28 29 30 31 32 33 34 35 36 37 38 39 40 41 42 43 44 45 46 47 48 49 50

000
ASUS43 KLMK 060702
RWRKY
KENTUCKY REGIONAL WEATHER ROUNDUP
NATIONAL WEATHER SERVICE LOUISVILLE KY
300 AM EDT MON JUL 06 2015

NOTE "FAIR" INDICATES FEW OR NO CLOUDS BELOW 12,000 FEET
WITH NO SIGNIFICANT WEATHER AND/OR OBSTRUCTIONS TO VISIBILITY.

KYZ001>023-026-027-061>063-070>075-060800-
WESTERN AND SOUTH CENTRAL KENTUCKY

CITY           SKY/WX    TMP DP  RH WIND       PRES   REMARKS
PADUCAH        CLEAR     70  67  90 CALM      30.02S FOG
HENDERSON      CLEAR     72  66  83 CALM      30.01F
OWENSBORO      PTCLDY    71  69  93 CALM      30.04S
HOPKINSVILLE   CLEAR     73  70  93 SW3       30.04S
BOWLING GREEN  CLEAR     70  68  93 CALM      30.05S FOG
GLASGOW        NOT AVBL
$$

KYZ024-025-028>034-038-045-046-053-060800-
NORTH CENTRAL KENTUCKY

CITY           SKY/WX    TMP DP  RH WIND       PRES   REMARKS
LOUISVILLE/SDF PTCLDY    70  65  84 CALM      30.04F
LOUISVILLE/LOU CLEAR     67  64  90 CALM      30.05F FOG
FORT KNOX      CLEAR     64  63  96 S2        30.03F FOG
$$

KYZ035>037-039>044-047>052-055>060-089>105-060800-
NORTHEAST KENTUCKY

CITY           SKY/WX    TMP DP  RH WIND       PRES   REMARKS
LEXINGTON      PTCLDY    66  64  93 CALM      30.07S
COVINGTON      PTCLDY    64  61  90 W3        30.05F
FRANKFORT      CLEAR     64  62  93 CALM      30.05F FOG
$$

KYZ054-064>069-076>088-106>120-060800-
SOUTHEAST KENTUCKY

CITY           SKY/WX    TMP DP  RH WIND       PRES   REMARKS
JACKSON        LGT RAIN  67  66  97 CALM      30.08S FOG
LONDON         FOG       68  65  90 S3        30.08F VSB 1/4
SOMERSET       NOT AVBL
MIDDLESBORO    NOT AVBL
MONTICELLO     FOG       67  67 100 CALM      30.10F VSB<1/4
$$




USA.gov is the U.S. government's official web portal to all federal, state and local government web resources and services.